This is the latest recevied weather packets stored in our database for station/object DL7HMX-13. If no packets are shown the sender has not sent any weather packets the latest 10 day(s).
| Time | Temp. | Humidity | Pressure | Rain* | Wind** | Luminosity | Snow |
|---|---|---|---|---|---|---|---|
| 1777328428 | 7.78° C | 78% | 1018.9 hPa | 0 mm | - | 0 W/m² | - |
| 1777327831 | 8.33° C | 76% | 1018.9 hPa | 0 mm | - | 0 W/m² | - |
| 1777327218 | 8.89° C | 74% | 1018.9 hPa | 0 mm | - | 0 W/m² | - |
| 1777326621 | 8.89° C | 75% | 1018.9 hPa | 0 mm | - | 0 W/m² | - |
| 1777326023 | 8.89° C | 73% | 1018.9 hPa | 0 mm | - | 0 W/m² | - |
| 1777325426 | 8.89° C | 72% | 1019 hPa | 0 mm | - | 0 W/m² | - |
| 1777324829 | 8.89° C | 72% | 1018.8 hPa | 0 mm | - | 0 W/m² | - |
| 1777324216 | 9.44° C | 70% | 1018.9 hPa | 0 mm | - | 0 W/m² | - |
| 1777323619 | 10° C | 69% | 1018.8 hPa | 0 mm | - | 0 W/m² | - |
| 1777323021 | 10° C | 68% | 1019 hPa | 0 mm | - | 0 W/m² | - |
| 1777322423 | 10° C | 66% | 1018.9 hPa | 0 mm | - | 0 W/m² | - |
| 1777321826 | 10.56° C | 65% | 1019 hPa | 0 mm | - | 0 W/m² | - |
| 1777321228 | 10.56° C | 64% | 1018.9 hPa | 0 mm | - | 0 W/m² | - |
| 1777320631 | 11.11° C | 63% | 1018.8 hPa | 0 mm | - | 0 W/m² | - |
| 1777320018 | 11.11° C | 60% | 1018.8 hPa | 0 mm | - | 0 W/m² | - |
| 1777319419 | 11.11° C | 58% | 1018.8 hPa | 0 mm | - | 0 W/m² | - |
| 1777318821 | 11.67° C | 54% | 1018.9 hPa | 0 mm | - | 0 W/m² | - |
| 1777318223 | 11.67° C | 54% | 1018.9 hPa | 0 mm | - | 0 W/m² | - |
| 1777317626 | 12.22° C | 51% | 1018.9 hPa | 0 mm | - | 0 W/m² | - |
| 1777317029 | 12.78° C | 49% | 1018.6 hPa | 0 mm | - | 0 W/m² | - |
| 1777316430 | 13.33° C | 46% | 1018.5 hPa | 0 mm | - | 0 W/m² | - |
| 1777315816 | 13.33° C | 45% | 1018.5 hPa | 0 mm | - | 0 W/m² | - |
| 1777315218 | 13.89° C | 40% | 1018.4 hPa | 0 mm | - | 0 W/m² | - |
| 1777314622 | 14.44° C | 39% | 1018.4 hPa | 0 mm | - | 1 W/m² | - |
| 1777314023 | 15° C | 38% | 1018.3 hPa | 0 mm | - | 2 W/m² | - |
* Rain latest hour (hover to see other rain measurements)
** Current wind speed in m/s (hover to see current wind gust speed)